This demonstration page uses our WeatherBlox Daily Observations layout. Learn more.

36.17497, -115.13722

Hourly Observations for February 17, 2018

Temp ( °F °C ) Dew Point ( °F °C ) Humidity (%) Winds ( mph kmh ) Pressure ( in mb ) Visibility ( mi km ) Precip ( " mm )
12:53 am 00:53 Clear 43 6.1 16 -8.9 34 34 Calm 30.25 1024 10 16.0934 0 0
1:53 am 01:53 Clear 41 5 16 -8.9 36 36 NNW 3 6 30.24 1024 10 16.0934 0 0
2:53 am 02:53 Clear 41 5 18 -7.8 39 39 NW 5 7 30.23 1024 10 16.0934 0 0
3:53 am 03:53 Clear 40 4.4 15 -9.4 36 36 N 7 11 30.23 1024 10 16.0934 0 0
4:53 am 04:53 Clear 39 3.9 14 -10 36 36 NNW 5 7 30.24 1024 10 16.0934 0 0
5:53 am 05:53 Clear 39 3.9 15 -9.4 38 38 NNW 5 7 30.25 1024 10 16.0934 0 0
6:53 am 06:53 Sunny 39 3.9 19 -7.2 45 45 Calm 30.27 1025 10 16.0934 0 0
7:53 am 07:53 Sunny 44 6.7 18 -7.8 35 35 Calm 30.28 1026 10 16.0934 0 0
8:53 am 08:53 Sunny 48 8.9 14 -10 25 25 SE 5 7 30.29 1026 10 16.0934 0 0
9:53 am 09:53 Sunny 53 11.7 12 -11.1 19 19 E 3 6 30.29 1026 10 16.0934 0 0
10:53 am 10:53 Sunny 56 13.3 11 -11.7 17 17 S 5 7 30.27 1025 10 16.0934 0 0
11:53 am 11:53 Sunny 58 14.4 10 -12.2 15 15 SSE 6 9 30.23 1024 10 16.0934 0 0
12:53 pm 12:53 Sunny 60 15.6 9 -12.8 13 13 SE 5 7 30.19 1022 10 16.0934 0 0
1:53 pm 13:53 Sunny 62 16.7 9 -12.8 12 12 SSE 6 9 30.15 1021 10 16.0934 0 0
2:53 pm 14:53 Sunny 64 17.8 9 -12.8 11 11 NE 7 11 30.12 1020 10 16.0934 0 0
3:53 pm 15:53 Sunny 64 17.8 10 -12.2 12 12 VRB 5 7 30.1 1019 10 16.0934 0 0
4:53 pm 16:53 Sunny 63 17.2 11 -11.7 13 13 E 5 7 30.09 1019 10 16.0934 0 0
5:53 pm 17:53 Clear 60 15.6 12 -11.1 15 15 ENE 5 7 30.08 1019 10 16.0934 0 0
6:53 pm 18:53 Clear 57 13.9 14 -10 18 18 ENE 3 6 30.07 1018 10 16.0934 0 0
7:53 pm 19:53 Clear 56 13.3 17 -8.3 22 22 Calm 30.05 1018 10 16.0934 0 0
8:53 pm 20:53 Clear 52 11.1 18 -7.8 26 26 Calm 30.04 1017 10 16.0934 0 0
9:53 pm 21:53 Clear 50 10 21 -6.1 32 32 WNW 3 6 30.02 1017 10 16.0934 0 0
10:53 pm 22:53 Clear 47 8.3 20 -6.7 34 34 NW 6 9 30 1016 10 16.0934 0 0
11:53 pm 23:53 Clear 49 9.4 20 -6.7 32 32 Calm 29.97 1015 10 16.0934 0 0

Powered by AerisWeather